Location: Slanting_Bridge
(35.6330°N, 80.9830°W)
Time: 06:37:57
(UTC-04:00)

Hamsat - Visible Passes

Search period start: 26 May 2016 00:00
Search period end: 05 June 2016 00:00
Orbit: 587 x 619 km, 97.6° (Epoch: 25 May)

Date Brightness Start Highest point End Pass type
(mag) Time Alt. Az. Time Alt. Az. Time Alt. Az.
26 May ? 04:59:05 10° ENE 05:01:30 15° E 05:03:53 10° SE visible
27 May ? 05:10:29 10° NE 05:13:42 20° E 05:16:53 10° SE visible
28 May ? 05:22:10 10° NE 05:25:53 27° E 05:29:34 10° SSE visible
29 May ? 05:33:59 10° NNE 05:38:02 38° E 05:42:03 10° SSE visible
02 Jun ? 04:49:19 10° ENE 04:50:24 11° E 04:51:28 10° ESE visible
03 Jun ? 05:00:03 10° ENE 05:02:37 15° E 05:05:10 10° SE visible
04 Jun ? 05:11:30 10° NE 05:14:48 21° E 05:18:05 10° SE visible
